Location: Newark
(50.9000°N, 14.8333°E)
Time: 11:01:44
(UTC+00:00)

N. Korean satellite - Pass Details

Date: 30 October 2020
Orbit: 453 x 503 km, 97.2° (Epoch: 03 December)

Event Time Altitude Azimuth Distance (km) Brightness Sun altitude
Rises 04:03:21 0° 21° (NNE) 2,484 10.4 -17.2°
Reaches altitude 10° 04:05:35 10° 33° (NNE) 1,602 9.6 -16.8°
Maximum altitude 04:08:37 29° 96° (E) 860 8.6 -16.4°
Drops below altitude 10° 04:11:39 10° 159° (SSE) 1,589 9.5 -15.9°
Sets 04:13:51 0° 170° (S) 2,460 10.3 -15.5°
